Change the Weather History Date:

Wednesday, March 19, 2014

  Actual Average Record
Temperature  
Mean Temperature 44 °F -  
Max Temperature 48 °F - - ()
Min Temperature 40 °F - - ()
Degree Days  
Heating Degree Days 21    
Moisture  
Dew Point 38 °F    
Average Humidity 81    
Maximum Humidity 92    
Minimum Humidity 68    
Precipitation  
Precipitation 0.00 in - - ()
Sea Level Pressure  
Sea Level Pressure 30.05 in    
Wind  
Wind Speed 14 mph ()    
Max Wind Speed 23 mph    
Max Gust Speed -    
T = Trace of Precipitation, MM = Missing Value Source: Averaged Metar Reports

Daily Weather History Graph

Daily Weather History Graph

Search for Another Location

Airport or City:

Trip Planner

Search our weather history database for the weather conditions in past years. The results will help you decide how hot, cold, wet, or windy it might be!

Date:

Astronomy

Mar. 19, 2014 Rise Set
Actual Time 7:19 AM PDT 7:26 PM PDT
Civil Twilight 6:48 AM PDT 7:58 PM PDT
Nautical Twilight 6:10 AM PDT 8:35 PM PDT
Astronomical Twilight 5:32 AM PDT 9:14 PM PDT
Moon 11:10 PM PDT (3/19) 8:32 AM PDT (3/19)
Length of Visible Light 13h 10m
Length of Day
12h 06m
Waning Gibbous, 90% of the Moon is Illuminated
Mar 19
Waning Gibbous
Mar 23
Last Quarter
Mar 30
New
Apr 7
First Quarter
Apr 15
Full

Hourly Weather History & Observations

Time (PDT) Temp. Windchill Dew Point Humidity Pressure Visibility Wind Dir Wind Speed Gust Speed Precip Events Conditions
12:00 AM 43.9 °F 35.7 °F 41.4 °F 91% 30.14 in - ESE 19.6 mph - N/A   Unknown
1:00 AM 44.1 °F 35.7 °F 41.5 °F 91% 30.10 in - SE 20.7 mph - N/A   Unknown
2:00 AM 44.4 °F 36.4 °F 42.1 °F 91% 30.09 in - ESE 19.6 mph - N/A   Unknown
3:00 AM 44.6 °F 37.2 °F 42.4 °F 92% 30.06 in - ESE 17.3 mph - N/A   Unknown
4:00 AM 44.8 °F 37.7 °F 42.4 °F 91% 30.04 in - ESE 16.1 mph - N/A   Unknown
5:00 AM 45 °F - 43 °F 88% 30.02 in - SE 15.0 mph - -  
5:00 AM 45.0 °F 38.2 °F 42.6 °F 91% 30.02 in - SE 15.0 mph - N/A   Unknown
6:00 AM 44.8 °F 39.4 °F 41.9 °F 90% 30.00 in - SE 10.4 mph - N/A   Unknown
7:00 AM 45.0 °F 40.1 °F 41.5 °F 88% 29.99 in - SE 9.2 mph - N/A   Unknown
8:00 AM 45.0 °F 41.2 °F 41.0 °F 86% 29.98 in - SE 6.9 mph - N/A   Unknown
9:00 AM 44.2 °F 41.0 °F 40.5 °F 87% 29.95 in - ESE 5.8 mph - N/A   Unknown
10:00 AM 46.2 °F 42.2 °F 39.0 °F 76% 29.96 in - WSW 8.1 mph - N/A   Unknown
11:00 AM 44 °F - 38 °F 71% 29.98 in - NW 20.7 mph - -  
11:00 AM 44.4 °F 36.1 °F 37.6 °F 77% 29.98 in - NW 20.7 mph - N/A   Unknown
12:00 PM 43.2 °F 34.2 °F 34.7 °F 72% 30.01 in - NNW 21.9 mph - N/A   Unknown
1:00 PM 43.7 °F 35.7 °F 35.4 °F 73% 30.02 in - NW 18.4 mph - N/A   Unknown
2:00 PM 44.1 °F 36.5 °F 35.6 °F 72% 30.02 in - NW 17.3 mph - N/A   Unknown
3:00 PM 44.1 °F 36.5 °F 36.0 °F 73% 30.02 in - NNW 17.3 mph - N/A   Unknown
4:00 PM 42.8 °F 33.5 °F 34.9 °F 74% 30.05 in - NW 23.0 mph - N/A   Unknown
5:00 PM 41 °F - 35 °F 73% 30.05 in - WSW 15.0 mph - -  
5:00 PM 41.2 °F 33.4 °F 35.2 °F 79% 30.05 in - WSW 15.0 mph - N/A   Unknown
6:00 PM 40.1 °F 30.7 °F 34.2 °F 79% 30.06 in - WSW 19.6 mph - N/A   Unknown
7:00 PM 42.1 °F 35.7 °F 35.2 °F 77% 30.08 in - WSW 11.5 mph - N/A   Unknown
8:00 PM 41.5 °F 31.9 °F 35.1 °F 78% 30.11 in - West 23.0 mph - N/A   Unknown
9:00 PM 40.8 °F 34.5 °F 34.5 °F 78% 30.11 in - WSW 10.4 mph - N/A   Unknown
10:00 PM 42.1 °F 37.7 °F 33.8 °F 72% 30.13 in - SW 6.9 mph - N/A   Unknown
11:00 PM 42 °F - 35 °F 68% 30.14 in - West 11.5 mph - -  
11:00 PM 41.9 °F 35.4 °F 35.1 °F 77% 30.14 in - West 11.5 mph - N/A   Unknown